Location: Castiglione Fibocchi
(43.5333°N, 11.7667°E)
Time: 09:53:14
(UTC+00:00)

NOSS 2-2 (E) - Pass Details

Date: 15 August 2020
Orbit: 467 x 1739 km, 63.3° (Epoch: 17 September)

Event Time Altitude Azimuth Distance (km) Brightness Sun altitude
Exits shadow 03:22:49 14° 251° (WSW) 1,416 4.8 -9.9°
Maximum altitude 03:25:30 35° 315° (NW) 815 4.1 -9.5°
Drops below altitude 10° 03:29:11 10° 23° (NNE) 1,845 6.9 -8.9°
Sets 03:31:47 0° 32° (NNE) 2,892 8.2 -8.5°
